CZ-6A DEB

Satellite information

Favourite Embed

Satellite Type and Status

DEBRISIN ORBIT

Key statistics

Satellite CZ-6A DEB at a glance.

Uptime

439

Days in orbit

Revolutions

≈ 14.5

Per day

Orbit

LEO

Low Earth Orbit

Inclination

89.1

Latest

Satellite identification and parameters

Extended collection of information and parameters for CZ-6A DEB.

Object identification

Identified? True

Debris? True

Object name: CZ-6A DEB

International designator: 2024-140GK

Object number (NORAD): 60808

Object ID (CCSDS): 60808

Country: PEOPLES REPUBLIC OF CHINA (PRC)

Current information (Y/N): Y

RCS size: MEDIUM

Orbital parameters

Period: 99.104 minutes

Inclination: 89.062 deg

SMA: 7093.946 km

Apoapsis: 797.618 km

Periapsis: 634.003 km

RAAN: 302.7011 deg

Eccentricy: 0.01153202

Argument of periapsis: 7.9911 deg

Mean anomaly: 352.3099 deg

Mean motion: 14.53017886 rev/day

Mean motion (dot): 0.00001002 rev/day2

B* drag term: 0.00021853479 1/REarth

Two-line elements (TLE)

Creation date: Oct. 19, 2025, 2:20 a.m.

Reference frame: TEME

Reference center: EARTH

Epoch: Oct. 18, 2025, 11:37 p.m. UTC

TLE line 0: 0 CZ-6A DEB

TLE line 1: 1 60808U 24140GK 25291.98465845 .00001002 00000-0 21853-3 0 9996

TLE line 2: 2 60808 89.0620 302.7011 0115320 7.9911 352.3099 14.53017886 62879

Live tracking on map

Real-time ground track for satellite CZ-6A DEB.

In-orbit conjunctions

A list of the most updated potential collisions computed for object CZ-6A DEB.

Target Orbit TCA Probability of collision Miss distance Type
FENGYUN 1C DEB SSO 2025-04-09 23:30:40 0.0001213526 216.0 (m) DEBRIS
FENGYUN 1C DEB SSO 2025-02-23 23:14:27 0.0002413577 359.0 (m) DEBRIS
IRIDIUM 33 DEB LEO 2024-12-27 12:57:24 0.0001670799 711.0 (m) DEBRIS
IRIDIUM 33 DEB LEO 2024-12-26 01:47:34 0.0002890958 949.0 (m) DEBRIS
FENGYUN 1C DEB SSO 2024-11-02 10:02:00 0.001860229 35.0 (m) DEBRIS

Associated space launch

18 Low Earth Orbit communication satellites with Ku, Q and V band payloads for the G60 constellation operated by Shanghai Spacecom Satellite Technology (SSST) with funding backed by the Shanghai local government. Initial constellation will consist of 1296 satellites by 2027 with long term plans to expand it to 12000 satellites.

CZ-6A DEB was lifted into orbit during the mission ‘Long March 6A | G60 Polar Group 01’, on board a Long March 6A space rocket.

The launch took place on Aug. 6, 2024, 6:42 a.m. from Launch Complex 9A.

For more information about the launch, click the button.

Launch to space Long March 6A | G60 Polar Group 01
Long March 6A | G60 Polar Group 01

Agency: N/A

Status: Launch Successful

Launch date: Aug. 6, 2024, 6:42 a.m. UTC

Rocket: Long March 6A

Launch pad: Launch Complex 9A

Location: Taiyuan Satellite Launch Center, People's Republic of China

...

Latest news about this satellite

News about space launch
Brightness of first Chinese broadband constellation satellites alarms astronomers

The first satellites of a Chinese broadband constellation are significantly brighter than those of Western systems, posing a new challenge for astronomers.

News about space launch
Chinese rocket stage breaks up into cloud of more than 700 pieces of space debris

HELSINKI — A Chinese Long March 6A rocket’s upper stage has fragmented into a cloud of over 700 pieces of space debris, adding to concerns about long-term orbital safety. China […]

News about space launch
China's Thousand Sails Megaconstellation Kicks Off with Dangerous Debris Field

China's Thousand Sails Megaconstellation Kicks Off with Dangerous Debris Field


Newsletter sign-up

Weekly statistics, charts and insights to help you stay on top of the space industry.